Time,TemperatureF,DewpointF,PressureIn,WindDirection,WindDirectionDegrees,WindSpeedMPH,WindSpeedGustMPH,Humidity,HourlyPrecipIn,Conditions,Clouds,dailyrainin,SoftwareType,DateUTC
2013-05-03 00:01:00,57.5,34.6,30.21,NE,49,3.0,5.0,42,0.00,,,0.00,Wunderground v.1.15,2013-05-03 07:01:00,
2013-05-03 00:02:00,57.6,34.7,30.21,NE,49,4.0,4.0,42,0.00,,,0.00,Wunderground v.1.15,2013-05-03 07:02:00,
2013-05-03 00:04:00,57.7,35.3,30.21,NE,47,3.0,4.0,43,0.00,,,0.00,Wunderground v.1.15,2013-05-03 07:04:00,
2013-05-03 00:06:00,57.8,34.8,30.21,NE,47,3.0,4.0,42,0.00,,,0.00,Wunderground v.1.15,2013-05-03 07:06:00,
2013-05-03 00:08:00,58.0,34.4,30.21,NE,47,4.0,4.0,41,0.00,,,0.00,Wunderground v.1.15,2013-05-03 07:08:00,
2013-05-03 00:10:00,58.0,34.4,30.21,NE,47,4.0,4.0,41,0.00,,,0.00,Wunderground v.1.15,2013-05-03 07:10:00,
2013-05-03 00:12:00,58.1,35.1,30.21,NE,47,3.0,4.0,42,0.00,,,0.00,Wunderground v.1.15,2013-05-03 07:12:00,
2013-05-03 00:15:00,58.2,34.0,30.21,NE,47,5.0,5.0,40,0.00,,,0.00,Wunderground v.1.15,2013-05-03 07:15:00,
2013-05-03 00:17:00,58.4,34.2,30.21,NE,47,4.0,5.0,40,0.00,,,0.00,Wunderground v.1.15,2013-05-03 07:17:00,
2013-05-03 00:19:00,58.6,34.3,30.21,NE,47,3.0,5.0,40,0.00,,,0.00,Wunderground v.1.15,2013-05-03 07:19:00,
2013-05-03 00:22:00,58.9,34.0,30.21,NE,47,4.0,4.0,39,0.00,,,0.00,Wunderground v.1.15,2013-05-03 07:22:00,
2013-05-03 00:25:00,59.2,33.6,30.21,NE,47,4.0,4.0,38,0.00,,,0.00,Wunderground v.1.15,2013-05-03 07:25:00,
2013-05-03 00:26:00,59.2,34.2,30.21,NE,47,4.0,4.0,39,0.00,,,0.00,Wunderground v.1.15,2013-05-03 07:26:00,
2013-05-03 00:27:00,59.2,34.2,30.21,NE,47,4.0,4.0,39,0.00,,,0.00,Wunderground v.1.15,2013-05-03 07:27:00,
2013-05-03 00:28:00,59.3,33.7,30.21,NE,47,4.0,4.0,38,0.00,,,0.00,Wunderground v.1.15,2013-05-03 07:28:00,
2013-05-03 00:30:00,59.2,34.2,30.21,NE,47,3.0,4.0,39,0.00,,,0.00,Wunderground v.1.15,2013-05-03 07:30:00,
2013-05-03 00:32:00,59.1,34.8,30.21,NE,47,5.0,5.0,40,0.00,,,0.00,Wunderground v.1.15,2013-05-03 07:32:00,
2013-05-03 00:35:00,58.9,35.2,30.21,NE,47,4.0,5.0,41,0.00,,,0.00,Wunderground v.1.15,2013-05-03 07:35:00,
2013-05-03 00:38:00,58.8,35.7,30.21,NE,47,3.0,5.0,42,0.00,,,0.00,Wunderground v.1.15,2013-05-03 07:38:00,
2013-05-03 00:42:00,58.2,36.4,30.21,NE,47,4.0,4.0,44,0.00,,,0.00,Wunderground v.1.15,2013-05-03 07:42:00,
2013-05-03 00:43:00,58.0,36.2,30.21,NE,47,4.0,4.0,44,0.00,,,0.00,Wunderground v.1.15,2013-05-03 07:43:00,
2013-05-03 00:44:00,57.9,36.7,30.21,NE,47,4.0,4.0,45,0.00,,,0.00,Wunderground v.1.15,2013-05-03 07:44:00,
2013-05-03 00:47:00,57.8,36.0,30.21,NE,47,4.0,5.0,44,0.00,,,0.00,Wunderground v.1.15,2013-05-03 07:47:00,
2013-05-03 00:48:00,57.9,35.5,30.21,NE,47,3.0,5.0,43,0.00,,,0.00,Wunderground v.1.15,2013-05-03 07:48:00,
2013-05-03 00:50:00,58.1,36.3,30.21,NE,47,4.0,5.0,44,0.00,,,0.00,Wunderground v.1.15,2013-05-03 07:50:00,
2013-05-03 00:53:00,58.5,36.1,30.21,NE,47,2.0,4.0,43,0.00,,,0.00,Wunderground v.1.15,2013-05-03 07:53:00,
2013-05-03 00:54:00,58.5,36.1,30.21,NE,47,2.0,4.0,43,0.00,,,0.00,Wunderground v.1.15,2013-05-03 07:54:00,
2013-05-03 00:55:00,58.5,36.1,30.21,NE,47,3.0,4.0,43,0.00,,,0.00,Wunderground v.1.15,2013-05-03 07:55:00,
2013-05-03 00:56:00,58.4,36.0,30.21,NE,47,3.0,4.0,43,0.00,,,0.00,Wunderground v.1.15,2013-05-03 07:56:00,
2013-05-03 00:59:00,59.0,32.7,30.21,NE,47,2.0,4.0,37,0.00,,,0.00,Wunderground v.1.15,2013-05-03 07:59:00,
2013-05-03 01:00:00,59.4,33.8,30.21,NE,47,2.0,4.0,38,0.00,,,0.00,Wunderground v.1.15,2013-05-03 08:00:00,
2013-05-03 01:01:00,59.7,34.0,30.21,NE,47,2.0,4.0,38,0.00,,,0.00,Wunderground v.1.15,2013-05-03 08:01:00,
2013-05-03 01:02:00,59.9,32.9,30.21,NE,47,2.0,3.0,36,0.00,,,0.00,Wunderground v.1.15,2013-05-03 08:02:00,
2013-05-03 01:03:00,60.1,34.4,30.21,NE,47,0.0,3.0,38,0.00,,,0.00,Wunderground v.1.15,2013-05-03 08:03:00,
2013-05-03 01:07:00,59.7,35.9,30.21,NE,47,0.0,3.0,41,0.00,,,0.00,Wunderground v.1.15,2013-05-03 08:07:00,
2013-05-03 01:09:00,59.3,36.2,30.21,NE,47,0.0,3.0,42,0.00,,,0.00,Wunderground v.1.15,2013-05-03 08:09:00,
2013-05-03 01:10:00,59.1,36.0,30.21,NE,47,2.0,3.0,42,0.00,,,0.00,Wunderground v.1.15,2013-05-03 08:10:00,
2013-05-03 01:12:00,58.7,35.7,30.21,NE,47,0.0,0.0,42,0.00,,,0.00,Wunderground v.1.15,2013-05-03 08:12:00,
2013-05-03 01:15:00,58.6,34.3,30.21,NE,47,0.0,0.0,40,0.00,,,0.00,Wunderground v.1.15,2013-05-03 08:15:00,
2013-05-03 01:16:00,58.7,33.8,30.21,NE,47,0.0,0.0,39,0.00,,,0.00,Wunderground v.1.15,2013-05-03 08:16:00,
2013-05-03 01:17:00,58.7,34.4,30.21,NE,47,0.0,0.0,40,0.00,,,0.00,Wunderground v.1.15,2013-05-03 08:17:00,
2013-05-03 01:21:00,58.6,36.7,30.21,NE,47,3.0,3.0,44,0.00,,,0.00,Wunderground v.1.15,2013-05-03 08:21:00,
2013-05-03 01:23:00,58.7,34.4,30.21,NE,36,2.0,6.0,40,0.00,,,0.00,Wunderground v.1.15,2013-05-03 08:23:00,
2013-05-03 01:24:00,59.0,34.7,30.21,NE,36,1.0,6.0,40,0.00,,,0.00,Wunderground v.1.15,2013-05-03 08:24:00,
2013-05-03 01:25:00,59.2,34.2,30.21,NE,36,2.0,6.0,39,0.00,,,0.00,Wunderground v.1.15,2013-05-03 08:25:00,
2013-05-03 01:28:00,59.8,35.4,30.21,NE,36,1.0,6.0,40,0.00,,,0.00,Wunderground v.1.15,2013-05-03 08:28:00,
2013-05-03 01:29:00,59.9,35.5,30.21,NE,36,0.0,6.0,40,0.00,,,0.00,Wunderground v.1.15,2013-05-03 08:29:00,
2013-05-03 01:34:00,59.9,34.2,30.21,NNW,348,4.0,8.0,38,0.00,,,0.00,Wunderground v.1.15,2013-05-03 08:34:00,
2013-05-03 01:35:00,60.0,35.0,30.21,NNW,347,4.0,8.0,39,0.00,,,0.00,Wunderground v.1.15,2013-05-03 08:35:00,
2013-05-03 01:36:00,59.9,35.5,30.21,NNW,347,5.0,8.0,40,0.00,,,0.00,Wunderground v.1.15,2013-05-03 08:36:00,
2013-05-03 01:39:00,59.5,35.1,30.21,NNW,347,4.0,8.0,40,0.00,,,0.00,Wunderground v.1.15,2013-05-03 08:39:00,
2013-05-03 01:41:00,59.6,34.6,30.21,NNW,347,1.0,8.0,39,0.00,,,0.00,Wunderground v.1.15,2013-05-03 08:41:00,
2013-05-03 01:42:00,59.6,35.9,30.22,NNW,347,3.0,4.0,41,0.00,,,0.00,Wunderground v.1.15,2013-05-03 08:42:00,
2013-05-03 01:44:00,59.4,35.7,30.21,NNW,347,0.0,4.0,41,0.00,,,0.00,Wunderground v.1.15,2013-05-03 08:44:00,
2013-05-03 01:47:00,59.0,35.9,30.21,NNW,347,2.0,4.0,42,0.00,,,0.00,Wunderground v.1.15,2013-05-03 08:47:00,
2013-05-03 01:48:00,58.9,34.6,30.21,North,355,6.0,6.0,40,0.00,,,0.00,Wunderground v.1.15,2013-05-03 08:48:00,
2013-05-03 01:50:00,59.4,33.8,30.21,NNE,13,16.0,17.0,38,0.00,,,0.00,Wunderground v.1.15,2013-05-03 08:50:00,
2013-05-03 01:53:00,60.4,34.0,30.21,NNE,18,16.0,18.0,37,0.00,,,0.00,Wunderground v.1.15,2013-05-03 08:53:00,
2013-05-03 01:58:00,60.8,33.7,30.20,NNE,30,13.0,24.0,36,0.00,,,0.00,Wunderground v.1.15,2013-05-03 08:58:00,
2013-05-03 02:03:00,60.9,34.4,30.20,NNE,26,11.0,21.0,37,0.00,,,0.00,Wunderground v.1.15,2013-05-03 09:03:00,
2013-05-03 02:08:00,60.7,34.3,30.20,NNE,22,23.0,30.0,37,0.00,,,0.00,Wunderground v.1.15,2013-05-03 09:08:00,
2013-05-03 02:13:00,60.4,34.7,30.20,NNE,21,21.0,32.0,38,0.00,,,0.00,Wunderground v.1.15,2013-05-03 09:13:00,
2013-05-03 02:18:00,59.9,34.9,30.20,North,5,26.0,32.0,39,0.00,,,0.00,Wunderground v.1.15,2013-05-03 09:18:00,
2013-05-03 02:23:00,59.5,35.1,30.20,North,360,25.0,30.0,40,0.00,,,0.00,Wunderground v.1.15,2013-05-03 09:23:00,
2013-05-03 02:28:00,59.3,35.6,30.19,North,9,26.0,32.0,41,0.00,,,0.00,Wunderground v.1.15,2013-05-03 09:28:00,
2013-05-03 02:33:00,59.2,36.1,30.19,NE,47,27.0,33.0,42,0.00,,,0.00,Wunderground v.1.15,2013-05-03 09:33:00,
2013-05-03 02:38:00,59.4,36.3,30.19,NNE,18,27.0,34.0,42,0.00,,,0.00,Wunderground v.1.15,2013-05-03 09:38:00,
2013-05-03 02:43:00,59.0,36.5,30.19,NNE,15,27.0,29.0,43,0.00,,,0.00,Wunderground v.1.15,2013-05-03 09:43:00,
2013-05-03 02:48:00,58.7,36.8,30.19,North,5,33.0,35.0,44,0.00,,,0.00,Wunderground v.1.15,2013-05-03 09:48:00,
2013-05-03 02:53:00,58.5,36.6,30.20,NNE,15,20.0,28.0,44,0.00,,,0.00,Wunderground v.1.15,2013-05-03 09:53:00,
2013-05-03 02:58:00,58.3,37.0,30.20,North,351,19.0,36.0,45,0.00,,,0.00,Wunderground v.1.15,2013-05-03 09:58:00,
2013-05-03 03:03:00,58.2,36.9,30.20,NNW,348,20.0,33.0,45,0.00,,,0.00,Wunderground v.1.15,2013-05-03 10:03:00,
2013-05-03 03:08:00,58.0,37.3,30.20,NNE,12,28.0,33.0,46,0.00,,,0.00,Wunderground v.1.15,2013-05-03 10:08:00,
2013-05-03 03:13:00,57.7,37.0,30.20,NNE,14,28.0,31.0,46,0.00,,,0.00,Wunderground v.1.15,2013-05-03 10:13:00,
2013-05-03 03:18:00,57.6,37.5,30.20,NNE,13,20.0,36.0,47,0.00,,,0.00,Wunderground v.1.15,2013-05-03 10:18:00,
2013-05-03 03:23:00,57.4,37.3,30.20,NNE,13,22.0,31.0,47,0.00,,,0.00,Wunderground v.1.15,2013-05-03 10:23:00,
2013-05-03 03:28:00,57.5,37.4,30.20,NNE,15,21.0,34.0,47,0.00,,,0.00,Wunderground v.1.15,2013-05-03 10:28:00,
2013-05-03 03:33:00,57.2,37.7,30.20,NE,40,31.0,37.0,48,0.00,,,0.00,Wunderground v.1.15,2013-05-03 10:33:00,
2013-05-03 03:38:00,57.0,37.5,30.21,NNE,19,18.0,37.0,48,0.00,,,0.00,Wunderground v.1.15,2013-05-03 10:38:00,
2013-05-03 03:43:00,57.2,37.7,30.21,North,5,30.0,35.0,48,0.00,,,0.00,Wunderground v.1.15,2013-05-03 10:43:00,
2013-05-03 03:48:00,56.9,37.9,30.21,East,80,27.0,39.0,49,0.00,,,0.00,Wunderground v.1.15,2013-05-03 10:48:00,
2013-05-03 03:53:00,56.5,38.1,30.21,NNE,24,23.0,31.0,50,0.00,,,0.00,Wunderground v.1.15,2013-05-03 10:53:00,
2013-05-03 03:58:00,56.2,37.8,30.21,NNE,12,31.0,37.0,50,0.00,,,0.00,Wunderground v.1.15,2013-05-03 10:58:00,
2013-05-03 04:03:00,56.0,38.1,30.22,NNE,27,23.0,36.0,51,0.00,,,0.00,Wunderground v.1.15,2013-05-03 11:03:00,
2013-05-03 04:08:00,55.9,38.0,30.22,NNE,19,24.0,36.0,51,0.00,,,0.00,Wunderground v.1.15,2013-05-03 11:08:00,
2013-05-03 04:13:00,55.6,38.2,30.22,NNE,19,27.0,30.0,52,0.00,,,0.00,Wunderground v.1.15,2013-05-03 11:13:00,
2013-05-03 04:18:00,55.6,38.2,30.22,NNE,32,28.0,35.0,52,0.00,,,0.00,Wunderground v.1.15,2013-05-03 11:18:00,
2013-05-03 04:23:00,55.5,38.1,30.22,NE,56,17.0,36.0,52,0.00,,,0.00,Wunderground v.1.15,2013-05-03 11:23:00,
2013-05-03 04:28:00,55.2,38.4,30.22,North,11,30.0,38.0,53,0.00,,,0.00,Wunderground v.1.15,2013-05-03 11:28:00,
2013-05-03 04:33:00,55.1,38.3,30.23,NNE,30,26.0,35.0,53,0.00,,,0.00,Wunderground v.1.15,2013-05-03 11:33:00,
2013-05-03 04:38:00,54.8,38.5,30.23,NNE,24,20.0,36.0,54,0.00,,,0.00,Wunderground v.1.15,2013-05-03 11:38:00,
2013-05-03 04:43:00,54.6,38.3,30.23,North,5,19.0,31.0,54,0.00,,,0.00,Wunderground v.1.15,2013-05-03 11:43:00,
2013-05-03 04:48:00,54.8,38.5,30.23,NE,35,26.0,38.0,54,0.00,,,0.00,Wunderground v.1.15,2013-05-03 11:48:00,
2013-05-03 04:53:00,54.9,38.6,30.23,NNE,19,21.0,33.0,54,0.00,,,0.00,Wunderground v.1.15,2013-05-03 11:53:00,
2013-05-03 04:58:00,55.0,38.6,30.23,NNE,16,20.0,35.0,54,0.00,,,0.00,Wunderground v.1.15,2013-05-03 11:58:00,
2013-05-03 05:03:00,55.3,38.4,30.23,NNE,27,27.0,33.0,53,0.00,,,0.00,Wunderground v.1.15,2013-05-03 12:03:00,
2013-05-03 05:08:00,55.5,38.6,30.23,NE,42,21.0,35.0,53,0.00,,,0.00,Wunderground v.1.15,2013-05-03 12:08:00,
2013-05-03 05:13:00,55.6,38.7,30.23,NE,55,24.0,32.0,53,0.00,,,0.00,Wunderground v.1.15,2013-05-03 12:13:00,
2013-05-03 05:18:00,55.5,38.6,30.24,NE,40,31.0,34.0,53,0.00,,,0.00,Wunderground v.1.15,2013-05-03 12:18:00,
2013-05-03 05:23:00,55.1,38.7,30.24,NE,42,24.0,28.0,54,0.00,,,0.00,Wunderground v.1.15,2013-05-03 12:23:00,
2013-05-03 05:28:00,54.9,38.6,30.24,NNE,20,13.0,30.0,54,0.00,,,0.00,Wunderground v.1.15,2013-05-03 12:28:00,
2013-05-03 05:33:00,54.6,38.7,30.23,NNE,32,23.0,28.0,55,0.00,,,0.00,Wunderground v.1.15,2013-05-03 12:33:00,
2013-05-03 05:38:00,54.4,38.6,30.23,NNE,26,19.0,29.0,55,0.00,,,0.00,Wunderground v.1.15,2013-05-03 12:38:00,
2013-05-03 05:43:00,54.2,38.4,30.24,NNE,21,23.0,26.0,55,0.00,,,0.00,Wunderground v.1.15,2013-05-03 12:43:00,
2013-05-03 05:48:00,54.2,38.8,30.24,NE,34,20.0,26.0,56,0.00,,,0.00,Wunderground v.1.15,2013-05-03 12:48:00,
2013-05-03 05:53:00,54.4,38.6,30.24,NNE,19,16.0,25.0,55,0.00,,,0.00,Wunderground v.1.15,2013-05-03 12:53:00,
2013-05-03 05:58:00,54.4,38.6,30.25,NE,42,19.0,25.0,55,0.00,,,0.00,Wunderground v.1.15,2013-05-03 12:58:00,
2013-05-03 06:03:00,54.4,38.6,30.24,NNE,29,17.0,18.0,55,0.00,,,0.00,Wunderground v.1.15,2013-05-03 13:03:00,
2013-05-03 06:08:00,54.5,38.7,30.24,NNE,15,19.0,27.0,55,0.00,,,0.00,Wunderground v.1.15,2013-05-03 13:08:00,
2013-05-03 06:13:00,55.0,38.6,30.24,NNE,22,15.0,23.0,54,0.00,,,0.00,Wunderground v.1.15,2013-05-03 13:13:00,
2013-05-03 06:18:00,55.1,38.7,30.25,NE,38,17.0,23.0,54,0.00,,,0.00,Wunderground v.1.15,2013-05-03 13:18:00,
2013-05-03 06:23:00,55.1,38.7,30.25,NNE,30,4.0,14.0,54,0.00,,,0.00,Wunderground v.1.15,2013-05-03 13:23:00,
2013-05-03 06:28:00,55.2,38.4,30.26,North,5,10.0,18.0,53,0.00,,,0.00,Wunderground v.1.15,2013-05-03 13:28:00,
2013-05-03 06:33:00,55.6,38.7,30.26,NE,36,3.0,9.0,53,0.00,,,0.00,Wunderground v.1.15,2013-05-03 13:33:00,
2013-05-03 06:38:00,56.0,38.6,30.26,NW,304,2.0,12.0,52,0.00,,,0.00,Wunderground v.1.15,2013-05-03 13:38:00,
2013-05-03 06:43:00,56.2,38.8,30.27,WSW,242,5.0,6.0,52,0.00,,,0.00,Wunderground v.1.15,2013-05-03 13:43:00,
2013-05-03 06:48:00,56.0,38.6,30.27,West,273,1.0,8.0,52,0.00,,,0.00,Wunderground v.1.15,2013-05-03 13:48:00,
2013-05-03 06:53:00,55.7,38.8,30.26,SE,144,5.0,6.0,53,0.00,,,0.00,Wunderground v.1.15,2013-05-03 13:53:00,
2013-05-03 06:58:00,55.8,38.9,30.26,ESE,121,0.0,9.0,53,0.00,,,0.00,Wunderground v.1.15,2013-05-03 13:58:00,
2013-05-03 07:03:00,56.3,38.9,30.27,SE,130,0.0,4.0,52,0.00,,,0.00,Wunderground v.1.15,2013-05-03 14:03:00,
2013-05-03 07:08:00,56.7,38.8,30.27,NNE,17,8.0,16.0,51,0.00,,,0.00,Wunderground v.1.15,2013-05-03 14:08:00,
2013-05-03 07:13:00,56.8,38.9,30.27,NE,41,23.0,23.0,51,0.00,,,0.00,Wunderground v.1.15,2013-05-03 14:13:00,
2013-05-03 07:18:00,56.9,38.9,30.27,North,355,14.0,23.0,51,0.00,,,0.00,Wunderground v.1.15,2013-05-03 14:18:00,
2013-05-03 07:23:00,56.8,38.9,30.26,North,5,27.0,27.0,51,0.00,,,0.00,Wunderground v.1.15,2013-05-03 14:23:00,
2013-05-03 07:28:00,56.8,38.9,30.26,North,360,15.0,28.0,51,0.00,,,0.00,Wunderground v.1.15,2013-05-03 14:28:00,
2013-05-03 07:33:00,56.9,38.9,30.26,NNE,24,9.0,21.0,51,0.00,,,0.00,Wunderground v.1.15,2013-05-03 14:33:00,
2013-05-03 07:38:00,56.9,38.9,30.26,NNE,24,17.0,27.0,51,0.00,,,0.00,Wunderground v.1.15,2013-05-03 14:38:00,
2013-05-03 07:43:00,57.1,39.1,30.26,North,5,13.0,22.0,51,0.00,,,0.00,Wunderground v.1.15,2013-05-03 14:43:00,
2013-05-03 07:48:00,57.5,39.0,30.26,North,5,10.0,28.0,50,0.00,,,0.00,Wunderground v.1.15,2013-05-03 14:48:00,
2013-05-03 07:53:00,57.8,39.3,30.26,NE,38,19.0,26.0,50,0.00,,,0.00,Wunderground v.1.15,2013-05-03 14:53:00,
2013-05-03 07:58:00,58.1,39.5,30.27,NE,43,14.0,26.0,50,0.00,,,0.00,Wunderground v.1.15,2013-05-03 14:58:00,
2013-05-03 08:03:00,58.2,39.1,30.27,NNE,26,9.0,18.0,49,0.00,,,0.00,Wunderground v.1.15,2013-05-03 15:03:00,
2013-05-03 08:08:00,58.7,39.0,30.27,North,350,5.0,28.0,48,0.00,,,0.00,Wunderground v.1.15,2013-05-03 15:08:00,
2013-05-03 08:13:00,59.0,39.3,30.27,NE,45,12.0,14.0,48,0.00,,,0.00,Wunderground v.1.15,2013-05-03 15:13:00,
2013-05-03 08:18:00,59.3,39.1,30.27,NE,51,15.0,27.0,47,0.00,,,0.00,Wunderground v.1.15,2013-05-03 15:18:00,
2013-05-03 08:23:00,59.6,39.3,30.27,NNE,20,19.0,23.0,47,0.00,,,0.00,Wunderground v.1.15,2013-05-03 15:23:00,
2013-05-03 08:28:00,60.3,39.4,30.27,NNE,19,14.0,23.0,46,0.00,,,0.00,Wunderground v.1.15,2013-05-03 15:28:00,
2013-05-03 08:33:00,60.4,38.9,30.26,NNE,19,15.0,18.0,45,0.00,,,0.00,Wunderground v.1.15,2013-05-03 15:33:00,
2013-05-03 08:38:00,60.8,38.7,30.26,NW,325,14.0,22.0,44,0.00,,,0.00,Wunderground v.1.15,2013-05-03 15:38:00,
2013-05-03 08:43:00,61.1,38.4,30.25,NNE,21,15.0,25.0,43,0.00,,,0.00,Wunderground v.1.15,2013-05-03 15:43:00,
2013-05-03 08:48:00,61.2,39.1,30.25,NE,37,14.0,27.0,44,0.00,,,0.00,Wunderground v.1.15,2013-05-03 15:48:00,
2013-05-03 08:53:00,61.6,38.9,30.25,NNW,337,16.0,22.0,43,0.00,,,0.00,Wunderground v.1.15,2013-05-03 15:53:00,
2013-05-03 08:58:00,61.4,38.1,30.25,North,355,29.0,31.0,42,0.00,,,0.00,Wunderground v.1.15,2013-05-03 15:58:00,
2013-05-03 09:03:00,61.4,38.1,30.25,NNE,15,24.0,29.0,42,0.00,,,0.00,Wunderground v.1.15,2013-05-03 16:03:00,
2013-05-03 09:08:00,62.0,38.0,30.24,North,5,27.0,32.0,41,0.00,,,0.00,Wunderground v.1.15,2013-05-03 16:08:00,
2013-05-03 09:13:00,62.3,38.3,30.25,North,9,17.0,34.0,41,0.00,,,0.00,Wunderground v.1.15,2013-05-03 16:13:00,
2013-05-03 09:18:00,62.3,38.3,30.24,North,11,24.0,34.0,41,0.00,,,0.00,Wunderground v.1.15,2013-05-03 16:18:00,
2013-05-03 09:23:00,62.6,36.6,30.24,NNW,335,25.0,38.0,38,0.00,,,0.00,Wunderground v.1.15,2013-05-03 16:23:00,
2013-05-03 09:28:00,63.0,37.0,30.24,NNE,17,30.0,38.0,38,0.00,,,0.00,Wunderground v.1.15,2013-05-03 16:28:00,
2013-05-03 09:33:00,63.4,36.7,30.23,NNE,13,21.0,35.0,37,0.00,,,0.00,Wunderground v.1.15,2013-05-03 16:33:00,
2013-05-03 09:38:00,63.3,36.6,30.23,NNE,13,28.0,42.0,37,0.00,,,0.00,Wunderground v.1.15,2013-05-03 16:38:00,
2013-05-03 09:43:00,63.7,36.2,30.24,NNE,30,31.0,33.0,36,0.00,,,0.00,Wunderground v.1.15,2013-05-03 16:43:00,
2013-05-03 09:48:00,63.7,36.2,30.24,NNE,22,30.0,37.0,36,0.00,,,0.00,Wunderground v.1.15,2013-05-03 16:48:00,
2013-05-03 09:53:00,63.6,36.1,30.24,NNE,23,22.0,31.0,36,0.00,,,0.00,Wunderground v.1.15,2013-05-03 16:53:00,
2013-05-03 09:58:00,64.3,36.0,30.25,NNE,28,23.0,31.0,35,0.00,,,0.00,Wunderground v.1.15,2013-05-03 16:58:00,
2013-05-03 10:03:00,64.1,36.6,30.25,North,11,20.0,31.0,36,0.00,,,0.00,Wunderground v.1.15,2013-05-03 17:03:00,
2013-05-03 10:08:00,64.3,36.8,30.25,NNE,25,22.0,33.0,36,0.00,,,0.00,Wunderground v.1.15,2013-05-03 17:08:00,
2013-05-03 10:13:00,64.9,35.8,30.25,NNE,32,20.0,30.0,34,0.00,,,0.00,Wunderground v.1.15,2013-05-03 17:13:00,
2013-05-03 10:18:00,65.0,36.7,30.25,North,360,19.0,31.0,35,0.00,,,0.00,Wunderground v.1.15,2013-05-03 17:18:00,
2013-05-03 10:23:00,65.1,36.0,30.25,NE,41,26.0,32.0,34,0.00,,,0.00,Wunderground v.1.15,2013-05-03 17:23:00,
2013-05-03 10:28:00,65.7,36.5,30.25,NNE,28,22.0,32.0,34,0.00,,,0.00,Wunderground v.1.15,2013-05-03 17:28:00,
2013-05-03 10:33:00,65.5,35.6,30.25,NE,52,21.0,25.0,33,0.00,,,0.00,Wunderground v.1.15,2013-05-03 17:33:00,
2013-05-03 10:38:00,65.7,35.8,30.24,NNE,22,26.0,35.0,33,0.00,,,0.00,Wunderground v.1.15,2013-05-03 17:38:00,
2013-05-03 10:43:00,65.9,36.0,30.24,NE,38,31.0,31.0,33,0.00,,,0.00,Wunderground v.1.15,2013-05-03 17:43:00,
2013-05-03 10:48:00,66.1,36.1,30.24,NNE,20,18.0,36.0,33,0.00,,,0.00,Wunderground v.1.15,2013-05-03 17:48:00,
2013-05-03 10:53:00,66.5,35.7,30.24,NNE,28,23.0,29.0,32,0.00,,,0.00,Wunderground v.1.15,2013-05-03 17:53:00,
2013-05-03 10:58:00,66.5,35.7,30.24,NNE,26,23.0,38.0,32,0.00,,,0.00,Wunderground v.1.15,2013-05-03 17:58:00,
2013-05-03 11:03:00,66.6,35.0,30.24,NNE,13,33.0,36.0,31,0.00,,,0.00,Wunderground v.1.15,2013-05-03 18:03:00,
2013-05-03 11:08:00,66.6,35.0,30.24,NNE,17,28.0,36.0,31,0.00,,,0.00,Wunderground v.1.15,2013-05-03 18:08:00,
2013-05-03 11:13:00,66.5,34.9,30.24,NNE,22,26.0,35.0,31,0.00,,,0.00,Wunderground v.1.15,2013-05-03 18:13:00,
2013-05-03 11:18:00,66.9,35.3,30.24,NNE,32,31.0,35.0,31,0.00,,,0.00,Wunderground v.1.15,2013-05-03 18:18:00,
2013-05-03 11:23:00,66.9,36.1,30.23,NNE,30,29.0,29.0,32,0.00,,,0.00,Wunderground v.1.15,2013-05-03 18:23:00,
2013-05-03 11:28:00,67.5,35.8,30.23,NE,34,30.0,31.0,31,0.00,,,0.00,Wunderground v.1.15,2013-05-03 18:28:00,
2013-05-03 11:33:00,67.2,35.5,30.23,NE,44,18.0,28.0,31,0.00,,,0.00,Wunderground v.1.15,2013-05-03 18:33:00,
2013-05-03 11:38:00,67.5,35.8,30.23,NNE,16,24.0,32.0,31,0.00,,,0.00,Wunderground v.1.15,2013-05-03 18:38:00,
2013-05-03 11:43:00,67.4,35.7,30.23,NNE,13,16.0,29.0,31,0.00,,,0.00,Wunderground v.1.15,2013-05-03 18:43:00,
2013-05-03 11:48:00,68.1,35.5,30.22,NNE,15,28.0,34.0,30,0.00,,,0.00,Wunderground v.1.15,2013-05-03 18:48:00,
2013-05-03 11:53:00,67.6,35.9,30.22,NNE,14,19.0,27.0,31,0.00,,,0.00,Wunderground v.1.15,2013-05-03 18:53:00,
2013-05-03 11:58:00,68.0,34.5,30.22,North,5,23.0,31.0,29,0.00,,,0.00,Wunderground v.1.15,2013-05-03 18:58:00,
2013-05-03 12:03:00,68.4,34.9,30.21,NE,36,26.0,32.0,29,0.00,,,0.00,Wunderground v.1.15,2013-05-03 19:03:00,
2013-05-03 12:08:00,68.6,36.7,30.20,NNE,15,37.0,37.0,31,0.00,,,0.00,Wunderground v.1.15,2013-05-03 19:08:00,
2013-05-03 12:13:00,68.0,35.4,30.21,NNE,27,20.0,34.0,30,0.00,,,0.00,Wunderground v.1.15,2013-05-03 19:13:00,
2013-05-03 12:18:00,68.2,36.4,30.20,NNE,26,23.0,35.0,31,0.00,,,0.00,Wunderground v.1.15,2013-05-03 19:18:00,
2013-05-03 12:19:00,68.3,36.5,30.21,NNE,27,26.0,35.0,31,0.00,,,0.00,Wunderground v.1.15,2013-05-03 19:19:00,
2013-05-03 12:24:00,68.6,35.9,30.20,NNE,28,27.0,32.0,30,0.00,,,0.00,Wunderground v.1.15,2013-05-03 19:24:00,
2013-05-03 12:29:00,69.0,36.3,30.20,NNE,15,26.0,32.0,30,0.00,,,0.00,Wunderground v.1.15,2013-05-03 19:29:00,
2013-05-03 12:34:00,68.7,36.8,30.20,NNE,21,20.0,33.0,31,0.00,,,0.00,Wunderground v.1.15,2013-05-03 19:34:00,
2013-05-03 12:39:00,69.0,36.3,30.20,North,360,23.0,33.0,30,0.00,,,0.00,Wunderground v.1.15,2013-05-03 19:39:00,
2013-05-03 12:44:00,68.9,36.2,30.20,North,9,15.0,28.0,30,0.00,,,0.00,Wunderground v.1.15,2013-05-03 19:44:00,
2013-05-03 12:49:00,69.3,35.7,30.20,North,355,24.0,34.0,29,0.00,,,0.00,Wunderground v.1.15,2013-05-03 19:49:00,
2013-05-03 12:54:00,69.3,35.7,30.20,NNE,26,21.0,29.0,29,0.00,,,0.00,Wunderground v.1.15,2013-05-03 19:54:00,
2013-05-03 12:59:00,69.7,35.1,30.20,North,9,9.0,29.0,28,0.00,,,0.00,Wunderground v.1.15,2013-05-03 19:59:00,
2013-05-03 13:04:00,69.5,35.8,30.20,NE,45,15.0,22.0,29,0.00,,,0.00,Wunderground v.1.15,2013-05-03 20:04:00,
2013-05-03 13:09:00,70.2,36.4,30.19,NNE,20,20.0,28.0,29,0.00,,,0.00,Wunderground v.1.15,2013-05-03 20:09:00,
2013-05-03 13:14:00,69.8,36.9,30.19,North,10,19.0,26.0,30,0.00,,,0.00,Wunderground v.1.15,2013-05-03 20:14:00,
2013-05-03 13:19:00,69.7,36.9,30.19,NNE,19,16.0,27.0,30,0.00,,,0.00,Wunderground v.1.15,2013-05-03 20:19:00,
2013-05-03 13:24:00,70.4,36.6,30.19,NNE,21,17.0,28.0,29,0.00,,,0.00,Wunderground v.1.15,2013-05-03 20:24:00,
2013-05-03 13:29:00,70.3,36.5,30.19,North,360,17.0,28.0,29,0.00,,,0.00,Wunderground v.1.15,2013-05-03 20:29:00,
2013-05-03 13:33:00,71.0,37.1,30.19,NE,49,13.0,16.0,29,0.00,,,0.00,Wunderground v.1.15,2013-05-03 20:33:00,
2013-05-03 13:34:00,71.3,36.5,30.19,NNE,32,17.0,21.0,28,0.00,,,0.00,Wunderground v.1.15,2013-05-03 20:34:00,
2013-05-03 13:39:00,70.5,36.7,30.19,NNW,348,16.0,21.0,29,0.00,,,0.00,Wunderground v.1.15,2013-05-03 20:39:00,
2013-05-03 13:44:00,70.1,35.5,30.19,NNE,28,16.0,20.0,28,0.00,,,0.00,Wunderground v.1.15,2013-05-03 20:44:00,
2013-05-03 13:49:00,70.8,36.1,30.18,NE,42,6.0,24.0,28,0.00,,,0.00,Wunderground v.1.15,2013-05-03 20:49:00,
2013-05-03 13:54:00,71.3,35.6,30.18,North,5,12.0,16.0,27,0.00,,,0.00,Wunderground v.1.15,2013-05-03 20:54:00,
2013-05-03 13:59:00,72.0,35.2,30.18,NE,35,13.0,21.0,26,0.00,,,0.00,Wunderground v.1.15,2013-05-03 20:59:00,
2013-05-03 14:04:00,71.5,34.8,30.18,NE,46,17.0,23.0,26,0.00,,,0.00,Wunderground v.1.15,2013-05-03 21:04:00,
2013-05-03 14:09:00,72.2,36.3,30.18,NNE,30,17.0,27.0,27,0.00,,,0.00,Wunderground v.1.15,2013-05-03 21:09:00,
2013-05-03 14:14:00,72.1,35.3,30.18,North,360,16.0,19.0,26,0.00,,,0.00,Wunderground v.1.15,2013-05-03 21:14:00,
2013-05-03 14:19:00,71.8,35.0,30.17,NNE,28,16.0,27.0,26,0.00,,,0.00,Wunderground v.1.15,2013-05-03 21:19:00,
2013-05-03 14:24:00,72.5,35.6,30.18,NNE,25,19.0,25.0,26,0.00,,,0.00,Wunderground v.1.15,2013-05-03 21:24:00,
2013-05-03 14:29:00,72.1,36.3,30.17,NNE,33,25.0,25.0,27,0.00,,,0.00,Wunderground v.1.15,2013-05-03 21:29:00,
2013-05-03 14:34:00,72.5,34.7,30.17,North,11,12.0,24.0,25,0.00,,,0.00,Wunderground v.1.15,2013-05-03 21:34:00,
2013-05-03 14:39:00,72.2,35.4,30.17,NE,34,25.0,26.0,26,0.00,,,0.00,Wunderground v.1.15,2013-05-03 21:39:00,
2013-05-03 14:44:00,72.2,32.3,30.17,NE,38,17.0,21.0,23,0.00,,,0.00,Wunderground v.1.15,2013-05-03 21:44:00,
2013-05-03 14:49:00,72.3,34.5,30.17,NE,40,17.0,21.0,25,0.00,,,0.00,Wunderground v.1.15,2013-05-03 21:49:00,
2013-05-03 14:54:00,72.3,35.5,30.16,NNE,22,14.0,28.0,26,0.00,,,0.00,Wunderground v.1.15,2013-05-03 21:54:00,
2013-05-03 14:59:00,72.8,35.9,30.16,NE,53,20.0,28.0,26,0.00,,,0.00,Wunderground v.1.15,2013-05-03 21:59:00,
2013-05-03 15:04:00,73.1,35.2,30.16,NNE,25,7.0,14.0,25,0.00,,,0.00,Wunderground v.1.15,2013-05-03 22:04:00,
2013-05-03 15:09:00,73.4,35.4,30.16,NE,38,13.0,20.0,25,0.00,,,0.00,Wunderground v.1.15,2013-05-03 22:09:00,
2013-05-03 15:14:00,73.5,34.5,30.16,NNE,14,15.0,24.0,24,0.00,,,0.00,Wunderground v.1.15,2013-05-03 22:14:00,
2013-05-03 15:19:00,73.3,33.2,30.16,NE,39,14.0,25.0,23,0.00,,,0.00,Wunderground v.1.15,2013-05-03 22:19:00,
2013-05-03 15:24:00,72.9,31.8,30.15,NE,42,12.0,21.0,22,0.00,,,0.00,Wunderground v.1.15,2013-05-03 22:24:00,
2013-05-03 15:29:00,73.0,34.1,30.15,NNE,27,23.0,26.0,24,0.00,,,0.00,Wunderground v.1.15,2013-05-03 22:29:00,
2013-05-03 15:34:00,72.9,34.0,30.14,NNE,30,7.0,20.0,24,0.00,,,0.00,Wunderground v.1.15,2013-05-03 22:34:00,
2013-05-03 15:39:00,73.3,34.3,30.14,NNE,17,8.0,21.0,24,0.00,,,0.00,Wunderground v.1.15,2013-05-03 22:39:00,
2013-05-03 15:44:00,73.2,33.2,30.14,North,5,20.0,23.0,23,0.00,,,0.00,Wunderground v.1.15,2013-05-03 22:44:00,
2013-05-03 15:49:00,73.7,30.1,30.14,NE,55,22.0,26.0,20,0.00,,,0.00,Wunderground v.1.15,2013-05-03 22:49:00,
2013-05-03 15:54:00,73.7,32.5,30.14,North,10,17.0,21.0,22,0.00,,,0.00,Wunderground v.1.15,2013-05-03 22:54:00,
2013-05-03 15:59:00,73.4,32.2,30.14,NNE,28,16.0,21.0,22,0.00,,,0.00,Wunderground v.1.15,2013-05-03 22:59:00,
2013-05-03 16:04:00,73.4,31.1,30.14,North,9,9.0,18.0,21,0.00,,,0.00,Wunderground v.1.15,2013-05-03 23:04:00,
2013-05-03 16:09:00,73.7,32.5,30.14,NE,45,17.0,22.0,22,0.00,,,0.00,Wunderground v.1.15,2013-05-03 23:09:00,
2013-05-03 16:14:00,73.8,31.4,30.14,NNE,32,11.0,17.0,21,0.00,,,0.00,Wunderground v.1.15,2013-05-03 23:14:00,
2013-05-03 16:19:00,73.8,31.4,30.14,NE,40,11.0,19.0,21,0.00,,,0.00,Wunderground v.1.15,2013-05-03 23:19:00,
2013-05-03 16:24:00,74.3,30.6,30.13,NNE,22,12.0,18.0,20,0.00,,,0.00,Wunderground v.1.15,2013-05-03 23:24:00,
2013-05-03 16:29:00,74.2,30.5,30.13,NNE,21,13.0,22.0,20,0.00,,,0.00,Wunderground v.1.15,2013-05-03 23:29:00,
2013-05-03 16:34:00,74.1,30.4,30.13,North,5,11.0,17.0,20,0.00,,,0.00,Wunderground v.1.15,2013-05-03 23:34:00,
2013-05-03 16:39:00,74.1,31.6,30.13,NNE,27,13.0,19.0,21,0.00,,,0.00,Wunderground v.1.15,2013-05-03 23:39:00,
2013-05-03 16:44:00,74.3,31.8,30.12,NE,35,20.0,22.0,21,0.00,,,0.00,Wunderground v.1.15,2013-05-03 23:44:00,
2013-05-03 16:49:00,74.6,32.1,30.12,NE,43,14.0,22.0,21,0.00,,,0.00,Wunderground v.1.15,2013-05-03 23:49:00,
2013-05-03 16:54:00,74.1,32.8,30.12,NNE,13,11.0,19.0,22,0.00,,,0.00,Wunderground v.1.15,2013-05-03 23:54:00,
2013-05-03 16:59:00,74.2,32.9,30.12,NE,54,18.0,22.0,22,0.00,,,0.00,Wunderground v.1.15,2013-05-03 23:59:00,
2013-05-03 17:04:00,74.3,33.0,30.12,NNE,14,16.0,20.0,22,0.00,,,0.00,Wunderground v.1.15,2013-05-04 00:04:00,
2013-05-03 17:09:00,74.4,33.1,30.12,NNE,17,17.0,23.0,22,0.00,,,0.00,Wunderground v.1.15,2013-05-04 00:09:00,
2013-05-03 17:14:00,74.7,33.3,30.12,NNE,25,10.0,17.0,22,0.00,,,0.00,Wunderground v.1.15,2013-05-04 00:14:00,
2013-05-03 17:19:00,74.6,32.1,30.12,NE,44,12.0,22.0,21,0.00,,,0.00,Wunderground v.1.15,2013-05-04 00:19:00,
2013-05-03 17:24:00,74.3,34.1,30.11,NE,36,13.0,23.0,23,0.00,,,0.00,Wunderground v.1.15,2013-05-04 00:24:00,
2013-05-03 17:29:00,74.2,32.9,30.11,NNE,17,13.0,23.0,22,0.00,,,0.00,Wunderground v.1.15,2013-05-04 00:29:00,
2013-05-03 17:34:00,74.7,34.4,30.11,NNE,33,16.0,21.0,23,0.00,,,0.00,Wunderground v.1.15,2013-05-04 00:34:00,
2013-05-03 17:39:00,74.5,34.2,30.11,NE,35,16.0,21.0,23,0.00,,,0.00,Wunderground v.1.15,2013-05-04 00:39:00,
2013-05-03 17:44:00,74.5,34.2,30.11,NE,35,11.0,15.0,23,0.00,,,0.00,Wunderground v.1.15,2013-05-04 00:44:00,
2013-05-03 17:49:00,74.4,34.2,30.11,NNE,30,12.0,20.0,23,0.00,,,0.00,Wunderground v.1.15,2013-05-04 00:49:00,
2013-05-03 17:54:00,74.4,35.2,30.11,NE,44,13.0,19.0,24,0.00,,,0.00,Wunderground v.1.15,2013-05-04 00:54:00,
2013-05-03 17:59:00,74.3,34.1,30.11,NE,51,15.0,20.0,23,0.00,,,0.00,Wunderground v.1.15,2013-05-04 00:59:00,
2013-05-03 18:04:00,74.2,35.1,30.11,NE,56,13.0,15.0,24,0.00,,,0.00,Wunderground v.1.15,2013-05-04 01:04:00,
2013-05-03 18:09:00,74.3,34.1,30.11,NE,47,12.0,21.0,23,0.00,,,0.00,Wunderground v.1.15,2013-05-04 01:09:00,
2013-05-03 18:14:00,74.3,35.2,30.10,NNE,24,9.0,14.0,24,0.00,,,0.00,Wunderground v.1.15,2013-05-04 01:14:00,
2013-05-03 18:19:00,74.4,35.2,30.10,NE,46,15.0,18.0,24,0.00,,,0.00,Wunderground v.1.15,2013-05-04 01:19:00,
2013-05-03 18:24:00,74.2,35.1,30.10,NNE,30,11.0,14.0,24,0.00,,,0.00,Wunderground v.1.15,2013-05-04 01:24:00,
2013-05-03 18:29:00,74.1,33.9,30.10,NNE,19,13.0,16.0,23,0.00,,,0.00,Wunderground v.1.15,2013-05-04 01:29:00,
2013-05-03 18:34:00,74.0,34.9,30.10,NNE,23,13.0,16.0,24,0.00,,,0.00,Wunderground v.1.15,2013-05-04 01:34:00,
2013-05-03 18:39:00,73.9,34.8,30.10,NE,39,18.0,21.0,24,0.00,,,0.00,Wunderground v.1.15,2013-05-04 01:39:00,
2013-05-03 18:44:00,73.7,34.6,30.10,NE,34,9.0,19.0,24,0.00,,,0.00,Wunderground v.1.15,2013-05-04 01:44:00,
2013-05-03 18:49:00,73.6,35.6,30.10,NE,51,15.0,19.0,25,0.00,,,0.00,Wunderground v.1.15,2013-05-04 01:49:00,
2013-05-03 18:54:00,73.4,35.4,30.10,NE,43,9.0,13.0,25,0.00,,,0.00,Wunderground v.1.15,2013-05-04 01:54:00,
2013-05-03 18:59:00,73.3,35.3,30.10,NE,55,14.0,16.0,25,0.00,,,0.00,Wunderground v.1.15,2013-05-04 01:59:00,
2013-05-03 19:04:00,73.2,36.2,30.10,NE,38,12.0,14.0,26,0.00,,,0.00,Wunderground v.1.15,2013-05-04 02:04:00,
2013-05-03 19:09:00,72.9,36.0,30.10,NE,38,12.0,14.0,26,0.00,,,0.00,Wunderground v.1.15,2013-05-04 02:09:00,
2013-05-03 19:14:00,72.7,35.8,30.10,NE,52,11.0,13.0,26,0.00,,,0.00,Wunderground v.1.15,2013-05-04 02:14:00,
2013-05-03 19:19:00,72.4,35.6,30.09,NE,38,6.0,13.0,26,0.00,,,0.00,Wunderground v.1.15,2013-05-04 02:19:00,
2013-05-03 19:24:00,72.1,35.3,30.09,NE,40,7.0,13.0,26,0.00,,,0.00,Wunderground v.1.15,2013-05-04 02:24:00,
2013-05-03 19:29:00,71.8,36.0,30.10,NNE,32,8.0,16.0,27,0.00,,,0.00,Wunderground v.1.15,2013-05-04 02:29:00,
2013-05-03 19:34:00,71.5,35.7,30.10,NE,40,8.0,10.0,27,0.00,,,0.00,Wunderground v.1.15,2013-05-04 02:34:00,
2013-05-03 19:39:00,70.9,36.1,30.10,NNE,33,7.0,10.0,28,0.00,,,0.00,Wunderground v.1.15,2013-05-04 02:39:00,
2013-05-03 19:44:00,70.4,36.6,30.10,NNE,20,9.0,11.0,29,0.00,,,0.00,Wunderground v.1.15,2013-05-04 02:44:00,
2013-05-03 19:49:00,70.0,36.3,30.10,NE,40,10.0,14.0,29,0.00,,,0.00,Wunderground v.1.15,2013-05-04 02:49:00,
2013-05-03 19:54:00,69.9,36.2,30.10,NE,38,13.0,15.0,29,0.00,,,0.00,Wunderground v.1.15,2013-05-04 02:54:00,
2013-05-03 19:59:00,69.3,36.5,30.10,NE,38,9.0,15.0,30,0.00,,,0.00,Wunderground v.1.15,2013-05-04 02:59:00,
2013-05-03 20:04:00,68.5,36.7,30.10,NE,36,10.0,12.0,31,0.00,,,0.00,Wunderground v.1.15,2013-05-04 03:04:00,
2013-05-03 20:09:00,67.8,36.0,30.10,NNE,31,10.0,15.0,31,0.00,,,0.00,Wunderground v.1.15,2013-05-04 03:09:00,
2013-05-03 20:14:00,68.1,35.5,30.10,NE,36,12.0,16.0,30,0.00,,,0.00,Wunderground v.1.15,2013-05-04 03:14:00,
2013-05-03 20:19:00,67.8,34.4,30.11,NNE,28,7.0,16.0,29,0.00,,,0.00,Wunderground v.1.15,2013-05-04 03:19:00,
2013-05-03 20:24:00,67.7,33.4,30.10,NE,35,13.0,15.0,28,0.00,,,0.00,Wunderground v.1.15,2013-05-04 03:24:00,
2013-05-03 20:29:00,68.0,33.7,30.10,NE,37,11.0,20.0,28,0.00,,,0.00,Wunderground v.1.15,2013-05-04 03:29:00,
2013-05-03 20:34:00,67.7,33.4,30.10,NNE,23,20.0,20.0,28,0.00,,,0.00,Wunderground v.1.15,2013-05-04 03:34:00,
2013-05-03 20:39:00,67.2,33.8,30.10,NNE,31,20.0,22.0,29,0.00,,,0.00,Wunderground v.1.15,2013-05-04 03:39:00,
2013-05-03 20:44:00,67.6,32.4,30.11,NNE,31,27.0,27.0,27,0.00,,,0.00,Wunderground v.1.15,2013-05-04 03:44:00,
2013-05-03 20:49:00,67.7,31.6,30.11,NNE,26,17.0,27.0,26,0.00,,,0.00,Wunderground v.1.15,2013-05-04 03:49:00,
2013-05-03 20:54:00,67.2,31.1,30.11,NNE,31,23.0,27.0,26,0.00,,,0.00,Wunderground v.1.15,2013-05-04 03:54:00,
2013-05-03 20:59:00,66.6,30.6,30.11,NE,40,20.0,28.0,26,0.00,,,0.00,Wunderground v.1.15,2013-05-04 03:59:00,
2013-05-03 21:01:00,66.6,31.5,30.11,NNE,24,19.0,28.0,27,0.00,,,0.00,Wunderground v.1.15,2013-05-04 04:01:00,
2013-05-03 21:06:00,66.5,30.5,30.12,NNE,17,15.0,22.0,26,0.00,,,0.00,Wunderground v.1.15,2013-05-04 04:06:00,
2013-05-03 21:11:00,66.0,31.0,30.12,NNE,26,17.0,22.0,27,0.00,,,0.00,Wunderground v.1.15,2013-05-04 04:11:00,
2013-05-03 21:16:00,66.2,31.2,30.12,North,11,11.0,21.0,27,0.00,,,0.00,Wunderground v.1.15,2013-05-04 04:16:00,
2013-05-03 21:21:00,66.8,30.8,30.12,NE,34,16.0,22.0,26,0.00,,,0.00,Wunderground v.1.15,2013-05-04 04:21:00,
2013-05-03 21:26:00,67.0,31.0,30.13,NNE,26,17.0,21.0,26,0.00,,,0.00,Wunderground v.1.15,2013-05-04 04:26:00,
2013-05-03 21:31:00,67.0,31.9,30.13,NNE,23,14.0,22.0,27,0.00,,,0.00,Wunderground v.1.15,2013-05-04 04:31:00,
2013-05-03 21:36:00,66.1,32.0,30.13,NNE,26,14.0,20.0,28,0.00,,,0.00,Wunderground v.1.15,2013-05-04 04:36:00,
2013-05-03 21:41:00,65.9,32.7,30.13,NNE,26,18.0,22.0,29,0.00,,,0.00,Wunderground v.1.15,2013-05-04 04:41:00,
2013-05-03 21:46:00,66.1,33.7,30.13,NNE,18,19.0,22.0,30,0.00,,,0.00,Wunderground v.1.15,2013-05-04 04:46:00,
2013-05-03 21:51:00,66.2,33.8,30.14,NNE,19,18.0,23.0,30,0.00,,,0.00,Wunderground v.1.15,2013-05-04 04:51:00,
2013-05-03 21:56:00,66.0,33.7,30.14,NNE,19,17.0,22.0,30,0.00,,,0.00,Wunderground v.1.15,2013-05-04 04:56:00,
2013-05-03 22:01:00,65.8,33.5,30.14,North,9,15.0,23.0,30,0.00,,,0.00,Wunderground v.1.15,2013-05-04 05:01:00,
2013-05-03 22:06:00,65.7,34.2,30.13,NNE,17,19.0,23.0,31,0.00,,,0.00,Wunderground v.1.15,2013-05-04 05:06:00,
2013-05-03 22:11:00,65.4,34.0,30.14,NNE,22,20.0,23.0,31,0.00,,,0.00,Wunderground v.1.15,2013-05-04 05:11:00,
2013-05-03 22:16:00,65.3,33.9,30.13,North,5,17.0,22.0,31,0.00,,,0.00,Wunderground v.1.15,2013-05-04 05:16:00,
2013-05-03 22:21:00,64.8,34.2,30.13,NNE,13,11.0,22.0,32,0.00,,,0.00,Wunderground v.1.15,2013-05-04 05:21:00,
2013-05-03 22:26:00,64.3,33.8,30.13,North,9,14.0,19.0,32,0.00,,,0.00,Wunderground v.1.15,2013-05-04 05:26:00,
2013-05-03 22:31:00,63.9,33.4,30.13,North,11,14.0,19.0,32,0.00,,,0.00,Wunderground v.1.15,2013-05-04 05:31:00,
2013-05-03 22:36:00,63.8,32.6,30.13,North,9,12.0,20.0,31,0.00,,,0.00,Wunderground v.1.15,2013-05-04 05:36:00,
2013-05-03 22:41:00,63.7,32.5,30.13,NNE,25,19.0,20.0,31,0.00,,,0.00,Wunderground v.1.15,2013-05-04 05:41:00,
2013-05-03 22:46:00,63.5,32.3,30.13,North,5,19.0,23.0,31,0.00,,,0.00,Wunderground v.1.15,2013-05-04 05:46:00,
2013-05-03 22:51:00,63.9,32.6,30.13,NNE,32,16.0,27.0,31,0.00,,,0.00,Wunderground v.1.15,2013-05-04 05:51:00,
2013-05-03 22:56:00,63.5,33.1,30.13,North,10,17.0,23.0,32,0.00,,,0.00,Wunderground v.1.15,2013-05-04 05:56:00,
2013-05-03 23:01:00,63.0,33.4,30.13,NNE,24,13.0,23.0,33,0.00,,,0.00,Wunderground v.1.15,2013-05-04 06:01:00,
2013-05-03 23:06:00,63.0,33.4,30.13,North,355,19.0,22.0,33,0.00,,,0.00,Wunderground v.1.15,2013-05-04 06:06:00,
2013-05-03 23:11:00,62.8,33.2,30.13,NNE,29,19.0,22.0,33,0.00,,,0.00,Wunderground v.1.15,2013-05-04 06:11:00,
2013-05-03 23:16:00,62.7,33.9,30.13,NNE,14,15.0,21.0,34,0.00,,,0.00,Wunderground v.1.15,2013-05-04 06:16:00,
2013-05-03 23:21:00,62.8,34.0,30.13,North,360,12.0,21.0,34,0.00,,,0.00,Wunderground v.1.15,2013-05-04 06:21:00,
2013-05-03 23:26:00,62.6,33.8,30.13,North,5,14.0,19.0,34,0.00,,,0.00,Wunderground v.1.15,2013-05-04 06:26:00,
2013-05-03 23:31:00,62.6,33.8,30.14,NNE,17,11.0,20.0,34,0.00,,,0.00,Wunderground v.1.15,2013-05-04 06:31:00,
2013-05-03 23:36:00,62.3,33.6,30.14,North,10,12.0,18.0,34,0.00,,,0.00,Wunderground v.1.15,2013-05-04 06:36:00,
2013-05-03 23:41:00,62.1,33.4,30.14,North,355,7.0,18.0,34,0.00,,,0.00,Wunderground v.1.15,2013-05-04 06:41:00,
2013-05-03 23:46:00,62.1,33.4,30.14,NNE,14,9.0,14.0,34,0.00,,,0.00,Wunderground v.1.15,2013-05-04 06:46:00,
2013-05-03 23:51:00,61.8,33.1,30.14,North,10,10.0,17.0,34,0.00,,,0.00,Wunderground v.1.15,2013-05-04 06:51:00,
2013-05-03 23:53:00,61.7,33.7,30.15,NNE,16,4.0,11.0,35,0.00,,,0.00,Wunderground v.1.15,2013-05-04 06:53:00,
2013-05-03 23:54:00,61.6,33.7,30.15,NE,49,12.0,12.0,35,0.00,,,0.00,Wunderground v.1.15,2013-05-04 06:54:00,
2013-05-03 23:56:00,61.6,33.7,30.14,NNE,15,3.0,12.0,35,0.00,,,0.00,Wunderground v.1.15,2013-05-04 06:56:00,
2013-05-03 23:57:00,61.5,33.6,30.15,North,9,3.0,12.0,35,0.00,,,0.00,Wunderground v.1.15,2013-05-04 06:57:00,